FW7194 Weather Reports


Display with metric or nautical units.
time (UTC)temp
F
wind
direction
speed
MPH
gust
MPH
rain 1hr
in
rain 24hr
in
rain mn
in
humidity
%
barometer
mb
20260504120139 53 132 0.0 0.0 0.00 0.00 0.00 97 1016.9
20260504110606 50 208 0.0 0.0 0.00 0.00 0.00 96 1016.4
20260504100528 50 208 0.0 0.0 0.00 0.00 0.00 95 1016.3
20260504081921 51 204 0.0 0.0 0.00 0.00 0.00 94 1016.5
20260504081418 51 204 0.0 0.0 0.00 0.00 0.00 94 1016.8
20260504080914 51 205 0.0 0.0 0.00 0.00 0.00 94 1016.6
20260504080411 51 205 0.0 0.0 0.00 0.00 0.00 94 1016.8
20260504070338 52 201 0.0 0.0 0.00 0.00 0.00 93 1016.7
20260504050715 53 202 0.0 0.0 0.00 0.00 0.00 91 1017.3
20260504050206 53 203 0.0 0.0 0.00 0.00 0.00 91 1017.3
20260504045703 53 203 0.0 0.0 0.00 0.00 0.00 91 1017.3
20260504045203 53 204 0.0 0.0 0.00 0.00 0.00 90 1017.2
20260504044702 53 203 0.0 0.0 0.00 0.00 0.00 90 1017.1
20260504044159 53 203 0.0 0.0 0.00 0.00 0.00 90 1017.1
20260504043655 53 203 0.0 0.0 0.00 0.00 0.00 90 1017.3
20260504043152 53 208 0.0 0.0 0.00 0.00 0.00 90 1017.4
20260504042650 53 209 0.0 0.0 0.00 0.00 0.00 90 1017.3
20260504042146 53 210 0.0 0.0 0.00 0.00 0.00 90 1017.4
20260504041642 53 207 0.0 0.0 0.00 0.00 0.00 90 1017.3
20260504041138 54 207 0.0 0.0 0.00 0.00 0.00 89 1017.3
20260504040636 54 207 0.0 0.0 0.00 0.00 0.00 89 1017.4
20260504040133 54 207 0.0 0.0 0.00 0.00 0.00 89 1017.3
20260504035629 54 208 0.0 0.0 0.00 0.00 0.00 89 1017.3
20260504035126 54 208 0.0 0.0 0.00 0.00 0.00 89 1017.2
20260504034624 54 205 0.0 0.0 0.00 0.00 0.00 88 1017.3
20260504034120 54 207 0.0 0.0 0.00 0.00 0.00 88 1017.3
20260504033618 54 207 0.0 0.0 0.00 0.00 0.00 88 1017.4
20260504033116 54 208 0.0 0.0 0.00 0.00 0.00 88 1017.4
20260504032612 54 208 0.0 0.0 0.00 0.00 0.00 88 1017.3
20260504032109 54 208 0.0 0.0 0.00 0.00 0.00 87 1017.3
20260504031606 55 208 0.0 0.0 0.00 0.00 0.00 87 1017.5
20260504031102 55 208 0.0 0.0 0.00 0.00 0.00 87 1017.5
20260504030600 55 208 0.0 0.0 0.00 0.00 0.00 87 1017.4
20260504030056 55 208 0.0 0.0 0.00 0.00 0.00 86 1017.6
20260504025553 55 208 0.0 0.0 0.00 0.00 0.00 86 1017.5
20260504025050 55 208 0.0 0.0 0.00 0.00 0.00 86 1017.5
20260504024547 55 208 0.0 0.0 0.00 0.00 0.00 85 1017.5
20260504024044 55 207 0.0 0.0 0.00 0.00 0.00 85 1017.5
20260504023540 55 207 0.0 0.0 0.00 0.00 0.00 85 1017.4
20260504023036 56 207 0.0 0.0 0.00 0.00 0.00 85 1017.5
20260504022532 56 205 0.0 0.0 0.00 0.00 0.00 84 1017.4
20260504022029 56 205 0.0 0.0 0.00 0.00 0.00 84 1017.3
20260504021526 56 218 0.0 0.0 0.00 0.00 0.00 84 1017.4
20260504021023 56 218 0.0 0.0 0.00 0.00 0.00 83 1017.4
20260504020520 57 219 0.0 0.0 0.00 0.00 0.00 83 1017.2
20260504020016 57 218 0.0 0.0 0.00 0.00 0.00 83 1017.2
20260504015513 57 208 0.0 0.0 0.00 0.00 0.00 82 1017.1
20260504015009 57 207 0.0 0.0 0.00 0.00 0.00 82 1017.1
20260504014505 57 207 0.0 0.0 0.00 0.00 0.00 81 1017.2
20260504014003 57 208 0.0 0.0 0.00 0.00 0.00 81 1016.9
20260504013501 58 207 0.0 0.0 0.00 0.00 0.00 80 1016.8
20260504012956 58 207 0.0 0.0 0.00 0.00 0.00 80 1016.9
20260504012454 58 207 0.0 0.0 0.00 0.00 0.00 79 1017.0
20260504011952 58 208 0.0 0.0 0.00 0.00 0.00 79 1016.9
20260504011448 59 208 0.0 0.0 0.00 0.00 0.00 78 1016.7
20260504010944 59 212 0.0 0.0 0.00 0.00 0.00 78 1016.8
20260504010440 59 211 0.0 0.0 0.00 0.00 0.00 78 1016.7
20260504005936 60 211 0.0 0.0 0.00 0.00 0.00 77 1016.7
20260504005433 60 210 0.0 0.0 0.00 0.00 0.00 77 1016.5
20260504004931 60 207 0.0 0.0 0.00 0.00 0.00 77 1016.7
20260504004428 60 203 0.0 0.0 0.00 0.00 0.00 76 1016.6
20260504003925 61 203 0.0 0.0 0.00 0.00 0.00 75 1016.4
20260504003421 61 202 0.0 0.0 0.00 0.00 0.00 75 1016.5
20260504002918 61 201 0.0 0.0 0.00 0.00 0.00 74 1016.4
20260504002415 62 192 0.0 1.0 0.00 0.00 0.00 73 1016.4
20260504001913 62 190 0.0 0.0 0.00 0.00 0.00 72 1016.6
20260504001411 62 185 0.0 0.0 0.00 0.00 0.00 72 1016.2
20260504000906 63 183 0.0 0.0 0.00 0.00 0.00 71 1016.4
20260504000404 63 188 0.0 1.0 0.00 0.00 0.00 70 1016.2
20260503235901 63 191 0.0 2.0 0.00 0.00 0.00 68 1016.2
20260503235359 63 209 1.0 3.0 0.00 0.00 0.00 67 1016.2
20260503234856 63 188 3.0 6.0 0.00 0.00 0.00 67 1015.9
20260503234354 64 213 2.0 6.0 0.00 0.00 0.00 67 1016.0
20260503233851 64 189 4.0 6.0 0.00 0.00 0.00 66 1016.0
20260503233347 64 192 3.0 6.0 0.00 0.00 0.00 66 1016.0
20260503232844 64 185 3.0 5.0 0.00 0.00 0.00 66 1015.9
20260503232341 64 214 4.0 9.0 0.00 0.00 0.00 65 1016.2
20260503231839 64 202 2.0 5.0 0.00 0.00 0.00 65 1016.0
20260503231336 64 219 4.0 6.0 0.00 0.00 0.00 65 1015.8
20260503230832 64 197 4.0 7.0 0.00 0.00 0.00 65 1015.9
20260503230329 64 197 5.0 8.0 0.00 0.00 0.00 65 1015.8
20260503225827 65 206 5.0 9.0 0.00 0.00 0.00 65 1016.0
20260503225322 65 214 2.0 9.0 0.00 0.00 0.00 65 1016.0
20260503224818 65 194 6.0 10.0 0.00 0.00 0.00 65 1015.9
20260503224316 65 186 5.0 6.0 0.00 0.00 0.00 65 1015.9
20260503223814 65 242 2.0 5.0 0.00 0.00 0.00 65 1016.2
20260503223312 65 168 6.0 8.0 0.00 0.00 0.00 64 1016.0
20260503222807 65 220 3.0 6.0 0.00 0.00 0.00 63 1016.0
20260503222305 65 199 7.0 9.0 0.00 0.00 0.00 63 1015.9
20260503221803 65 216 7.0 9.0 0.00 0.00 0.00 64 1015.8
20260503221301 65 221 4.0 9.0 0.00 0.00 0.00 64 1015.7
20260503220757 65 212 3.0 9.0 0.00 0.00 0.00 63 1015.7
20260503220254 65 180 4.0 6.0 0.00 0.00 0.00 63 1015.7
20260503215751 65 203 4.0 7.0 0.00 0.00 0.00 63 1015.7
20260503215248 65 157 6.0 8.0 0.00 0.00 0.00 63 1015.9
20260503214746 65 208 3.0 8.0 0.00 0.00 0.00 63 1015.7
20260503214242 66 226 6.0 7.0 0.00 0.00 0.00 62 1015.8
20260503213741 66 191 5.0 7.0 0.00 0.00 0.00 63 1015.7
20260503213238 66 232 2.0 7.0 0.00 0.00 0.00 63 1015.8
20260503212734 66 243 5.0 7.0 0.00 0.00 0.00 62 1015.8
20260503212232 66 242 6.0 10.0 0.00 0.00 0.00 61 1015.7
20260503211730 66 193 7.0 9.0 0.00 0.00 0.00 62 1016.1
20260503211225 66 175 4.0 7.0 0.00 0.00 0.00 61 1015.7
20260503210721 66 171 10.0 11.0 0.00 0.00 0.00 61 1015.9
20260503210219 66 217 9.0 10.0 0.00 0.00 0.00 61 1016.2
20260503205714 66 200 4.0 9.0 0.00 0.00 0.00 62 1016.2
20260503205210 66 128 6.0 13.0 0.00 0.00 0.00 62 1016.1
20260503204707 66 201 6.0 14.0 0.00 0.00 0.00 60 1016.2
20260503204205 66 160 3.0 9.0 0.00 0.00 0.00 61 1016.3
20260503203701 66 187 5.0 7.0 0.00 0.00 0.00 61 1016.0
20260503203159 66 199 9.0 15.0 0.00 0.00 0.00 60 1016.0
20260503202650 66 199 5.0 10.0 0.00 0.00 0.00 61 1016.3
20260503202148 66 243 2.0 6.0 0.00 0.00 0.00 61 1016.3
20260503201646 66 214 1.0 6.0 0.00 0.00 0.00 62 1016.1
20260503201143 66 288 2.0 8.0 0.00 0.00 0.00 61 1016.3
20260503200639 66 195 9.0 15.0 0.00 0.00 0.00 61 1016.5
20260503200136 66 244 4.0 7.0 0.00 0.00 0.00 61 1016.5
20260503195633 66 223 7.0 11.0 0.00 0.00 0.00 61 1016.3
20260503195130 66 205 2.0 10.0 0.00 0.00 0.00 61 1016.6
20260503194627 67 208 6.0 10.0 0.00 0.00 0.00 60 1016.6
20260503194122 66 222 1.0 7.0 0.00 0.00 0.00 61 1016.7
20260503193620 66 186 6.0 9.0 0.00 0.00 0.00 61 1016.8
20260503193114 66 173 3.0 13.0 0.00 0.00 0.00 61 1017.0
20260503192604 66 219 4.0 8.0 0.00 0.00 0.00 61 1016.9
20260503192100 66 116 7.0 11.0 0.00 0.00 0.00 60 1017.0
20260503191557 66 284 3.0 10.0 0.00 0.00 0.00 61 1017.0
20260503191054 66 148 5.0 9.0 0.00 0.00 0.00 61 1017.1
20260503190551 66 196 2.0 7.0 0.00 0.00 0.00 62 1017.1
20260503190048 66 127 5.0 7.0 0.00 0.00 0.00 60 1017.3
20260503185545 66 83 3.0 5.0 0.00 0.00 0.00 59 1017.4
20260503185044 66 227 0.0 3.0 0.00 0.00 0.00 58 1017.4
20260503184540 66 213 3.0 5.0 0.00 0.00 0.00 60 1017.4
20260503184037 66 180 4.0 8.0 0.00 0.00 0.00 60 1017.5
20260503183534 66 172 3.0 9.0 0.00 0.00 0.00 60 1017.7
20260503183031 67 106 5.0 8.0 0.00 0.00 0.00 59 1017.6
20260503182530 67 112 3.0 13.0 0.00 0.00 0.00 60 1017.7
20260503182027 67 193 9.0 10.0 0.00 0.00 0.00 60 1017.7
20260503181524 67 190 3.0 7.0 0.00 0.00 0.00 61 1017.7
20260503181020 67 171 6.0 9.0 0.00 0.00 0.00 61 1017.7
20260503180518 66 155 5.0 7.0 0.00 0.00 0.00 61 1017.8
20260503180015 66 128 1.0 2.0 0.00 0.00 0.00 61 1017.5
20260503175512 67 120 3.0 6.0 0.00 0.00 0.00 60 1017.6
20260503175009 67 184 7.0 8.0 0.00 0.00 0.00 60 1017.9
20260503174507 67 104 6.0 9.0 0.00 0.00 0.00 59 1017.7
20260503174002 68 151 4.0 6.0 0.00 0.00 0.00 57 1017.7
20260503173457 68 138 1.0 2.0 0.00 0.00 0.00 58 1017.7
20260503172954 68 209 1.0 2.0 0.00 0.00 0.00 58 1018.0
20260503172452 68 74 2.0 3.0 0.00 0.00 0.00 56 1017.9
20260503171948 68 207 1.0 3.0 0.00 0.00 0.00 54 1017.7
20260503171445 68 118 2.0 3.0 0.00 0.00 0.00 55 1017.9
20260503170943 68 287 1.0 3.0 0.00 0.00 0.00 53 1018.1
20260503170438 68 231 2.0 5.0 0.00 0.00 0.00 54 1018.1
20260503150831 66 170 0.0 2.0 0.00 0.00 0.00 58 1018.6
20260503150327 65 119 0.0 5.0 0.00 0.00 0.00 63 1018.6
20260503140251 63 138 1.0 5.0 0.00 0.00 0.00 75 1018.3
20260503131221 58 83 1.0 3.0 0.00 0.00 0.00 99 1018.2
20260503130719 58 109 1.0 3.0 0.00 0.00 0.00 99 1018.1
20260503130216 57 106 1.0 3.0 0.00 0.00 0.00 99 1018.2